Regional Weather Roundup
Issued by NWS

Home | Current Version | Previous Version | Graphics & Text | Print | Product List | Glossary On
Versions: 1 2 3 4 5 6 7 8 9 10 11 12 13 14 15 16 17 18 19 20 21 22 23 24 25 26 27 28 29 30 31 32 33 34 35 36 37 38 39 40 41 42 43 44 45 46 47 48 49 50
000
ASUS45 KSLC 240610
RWRUT

UTAH REGIONAL WEATHER ROUNDUP
NATIONAL WEATHER SERVICE SALT LAKE CITY UT
1200 AM MDT SUN MAY 24 2015

UTZ001>011-023>025-240700-

NORTHERN UTAH

CITY           SKY/WX    TMP DP  RH WIND       PRES   REMARKS
BRIGHAM CITY   CLOUDY    53  44  71 CALM      29.97S
HILL AFB       CLOUDY    48  43  82 SE9       29.98R
LOGAN          PTCLDY    48  44  86 CALM      29.98R
OGDEN          MOCLDY    49  44  83 S6        29.97R
PROVO AIRPORT  MOCLDY    52  43  71 SE9       29.98S
SALT LAKE CITY PTCLDY    52  45  77 CALM      29.96S
VERNAL         PTCLDY    45  38  76 W3        29.98S
WENDOVER       CLOUDY    54  46  76 CALM      29.98S
HEBER CITY     CLOUDY    45  39  81 W3        29.99S
WEST JORDAN    CLEAR     48  43  81 CALM      29.98S

$$

UTZ012>022-026-027-240700-

SOUTHERN/CENTRAL UTAH

CITY           SKY/WX    TMP DP  RH WIND       PRES   REMARKS
BLANDING       CLOUDY    44  43  97 E7        30.08S
BRYCE CANYON   CLOUDY    41  38  89 NW6       30.05S
CEDAR CITY     CLOUDY    47  42  83 SE9       29.99F
DELTA          PTCLDY    44  40  84 SW3       29.98S
HANKSVILLE     CLOUDY    50  43  76 SW8       29.98F
MILFORD        CLOUDY    49  45  86 S7        29.98S
MOAB/CYNLANDS  MOCLDY    50  44  80 SE6       29.96S
PRICE          PTCLDY    42  35  76 NE7       29.98F
ST GEORGE      CLOUDY    61  46  59 NE6       29.93R
KANAB          CLOUDY    50  50 100 CALM      30.02S

$$

REGIONAL REPORTS     COLORADO/ARIZONA

CITY           SKY/WX    TMP DP  RH WIND       PRES   REMARKS
CRAIG, CO      CLOUDY    43  36  76 E8        29.99F
GRAND JUNCTION PTCLDY    45  42  89 SE10      29.97F
RIFLE          CLOUDY    46  39  76 CALM      29.98F
MONTROSE       MOCLDY    43  41  93 W3        30.03F
CORTEZ         MOCLDY    44  43  96 CALM      30.02F
PAGE, AZ       RAIN      53  51  93 NE3       29.98R FOG
GRAND CANYON   CLOUDY    46  40  79 SW5       30.06S
KINGMAN        MOCLDY    63  37  38 S9        29.95S
FLAGSTAFF      PTCLDY    45  33  63 SW6       30.10S

$$

REGIONAL REPORTS    NEVADA/IDAHO/WYOMING

CITY           SKY/WX    TMP DP  RH WIND       PRES   REMARKS
LAS VEGAS, NV  MOCLDY    75  42  30 SW8       29.80S
ELY            CLOUDY    46  44  93 NW6       30.03R
ELKO           CLOUDY    49  46  90 CALM      30.02S
POCATELLO, ID  CLOUDY    51  50  96 E3        29.99F
BURLEY         CLOUDY    50  48  93 E3        29.97S
EVANSTON, WY   PTCLDY    39  35  86 S6        30.02F WCI  35
ROCK SPRINGS   CLOUDY    42  37  82 NE12      30.00S
KEMMERER       CLOUDY    41  36  81 NE6       30.03S

$$



USA.gov is the U.S. government's official web portal to all federal, state and local government web resources and services.